Location: Buckland
(65.9785°N, 161.1281°W)
Time: 07:38:52
(UTC+00:00)

Transit 2A Rocket - Pass Details

Date: 30 November 2020
Orbit: 592 x 910 km, 66.7° (Epoch: 21 January)

Event Time Altitude Azimuth Distance (km) Brightness Sun altitude
Exits shadow 16:17:42 48° 270° (W) 1,024 5.2 -21.4°
Maximum altitude 16:19:16 84° 354° (N) 779 4.9 -21.2°
Drops below altitude 10° 16:24:20 10° 83° (E) 2,205 8.5 -20.7°
Sets 16:26:35 0° 84° (E) 3,076 9.6 -20.5°
